Location: Unspecified
(47.6577°N, 23.5639°E)
Time: 20:37:02
(UTC+03:00)

ISS - Pass Details

Date: 09 February 2017
Orbit: 402 x 409 km, 51.6° (Epoch: 25 May)

Event Time Altitude Azimuth Distance (km) Brightness Sun altitude
Rises 19:35:34 0° 293° (WNW) 2,336 1.2 -19.9°
Reaches altitude 10° 19:37:40 10° 295° (WNW) 1,471 -0.1 -20.3°
Enters shadow 19:40:33 61° 328° (NNW) 464 -3.5 -20.8°
